Wind_Speed
4 4 5 5 7 6 5 5 6 6 7 7 7 8 9 9 8 7 8 7 7 7 7 7 7 7 7 8 7 7 7 6 5 4 3 2 1 1 1 0 0 2 2 2 3 3 4 5 6
3 3 3 4 6 4 4 5 5 6 6 7 7 7 8 8 8 7 7 7 7 7 7 7 7 7 7 7 7 7 6 6 5 4 3 2 3 2 1 1 1 2 2 2 3 3 4 5 6
3 3 3 4 4 3 3 4 5 6 6 7 6 7 8 8 7 7 6 7 8 8 7 7 7 7 7 7 7 6 6 5 5 4 3 3 3 2 1 1 1 1 2 2 2 2 4 5 6
2 2 2 3 2 2 2 3 4 6 6 7 7 7 7 7 7 7 6 6 7 7 7 7 7 7 7 7 6 6 6 6 5 5 4 3 3 2 1 1 1 0 1 2 2 3 4 5 6
3 2 2 2 2 1 0 2 4 5 6 6 6 7 7 7 7 6 6 7 7 7 7 7 7 7 7 7 6 6 6 6 6 6 5 4 3 2 2 1 1 1 2 2 2 3 4 5 6
4 3 3 2 2 1 0 1 2 4 4 5 6 6 6 7 7 7 6 7 7 7 7 7 7 7 7 6 6 6 6 6 6 6 6 4 4 3 2 1 1 2 2 3 3 4 4 5 6
5 4 4 3 2 2 1 0 1 2 3 5 5 6 6 6 7 7 7 6 7 7 7 7 8 7 7 7 6 6 6 6 6 6 6 5 4 4 3 2 2 2 3 3 4 4 5 5 6
6 5 4 3 3 3 2 1 1 1 3 4 5 5 5 6 6 6 7 7 7 7 7 7 7 7 7 6 6 7 7 6 5 6 6 5 5 4 4 3 3 3 3 4 4 5 6 6 6
7 6 6 5 5 4 3 2 2 2 3 4 4 5 5 5 5 5 6 7 6 7 7 7 6 7 6 6 6 7 7 6 6 6 6 5 5 5 5 4 4 4 4 4 4 5 6 6 7
8 7 8 7 6 5 4 4 4 3 3 4 4 5 5 6 5 5 5 6 6 7 7 7 6 6 6 6 6 7 7 6 6 6 6 5 6 6 5 5 4 4 4 4 4 5 6 6 7
9 9 9 8 7 6 5 5 5 5 5 5 5 6 6 6 6 6 6 6 6 7 7 7 7 7 7 6 6 6 6 7 7 6 6 6 6 6 5 5 4 4 4 5 5 6 6 7 7
11 10 10 9 8 7 7 6 6 6 7 6 6 6 6 6 6 6 6 6 6 6 7 7 7 7 7 7 7 6 6 7 6 6 6 6 6 5 5 5 5 4 5 5 5 6 7 7 7
12 12 12 11 10 9 9 8 7 7 7 7 6 7 7 7 6 6 5 5 6 6 7 7 7 7 7 6 6 6 6 6 6 6 6 6 6 6 5 5 5 5 4 5 4 4 4 5 7
14 14 13 13 12 11 10 10 9 8 9 8 8 8 8 7 7 6 6 6 6 6 6 6 6 6 6 6 6 6 6 7 7 7 7 6 6 6 6 5 5 5 5 5 5 3 2 4 6
14 15 15 15 14 13 12 11 11 10 10 10 9 9 8 8 8 7 7 7 7 6 6 6 6 6 7 7 7 7 6 7 7 7 7 6 6 5 6 5 5 6 6 5 4 3 2 4 6
16 16 16 16 15 14 13 12 12 12 12 11 10 10 9 9 9 8 8 8 8 7 7 6 6 7 7 7 8 7 6 6 6 6 7 6 6 6 6 6 6 6 7 6 4 4 4 4 6
18 17 16 17 16 15 14 14 14 13 12 11 11 11 11 11 10 10 10 9 9 9 7 7 7 7 7 8 8 7 7 7 6 7 7 6 6 7 7 6 6 7 7 6 6 5 5 6 6
19 18 18 17 17 16 15 15 15 14 13 12 12 12 12 12 12 11 11 10 10 10 8 7 7 8 8 8 8 7 8 7 7 7 7 6 6 7 7 7 7 7 8 7 7 7 6 7 6
20 19 18 18 18 16 16 16 15 15 14 13 12 12 12 12 11 11 11 11 11 11 10 9 8 8 8 8 8 8 9 8 7 7 6 6 6 7 7 8 8 8 8 8 7 7 7 7 7
21 20 19 20 19 18 17 16 16 16 14 14 14 13 13 13 12 12 11 11 11 11 11 10 9 9 9 9 8 8 8 7 7 6 6 6 7 7 7 8 9 9 9 8 7 7 7 7 8
22 21 20 21 20 19 18 17 17 17 16 15 15 15 14 13 12 12 11 12 11 11 11 11 10 10 10 10 9 8 8 7 7 7 7 7 7 7 8 8 9 10 9 9 8 8 8 8 8
22 22 22 22 21 20 19 17 18 18 17 16 16 15 14 13 12 12 12 12 12 12 11 11 10 11 11 11 10 9 8 8 8 8 8 8 8 8 9 9 10 10 9 9 9 9 9 9 9
23 23 23 22 21 21 21 20 19 19 18 17 16 16 15 15 14 13 13 13 13 13 12 11 11 10 11 11 10 9 9 9 8 8 9 8 8 9 9 10 10 11 10 10 10 10 10 10 10
23 23 23 22 22 23 22 21 20 20 19 19 18 17 17 16 15 15 14 14 14 13 12 11 11 11 11 10 9 9 9 9 8 8 9 9 9 10 10 10 11 11 11 11 11 11 11 11 11
23 22 22 22 22 22 22 23 21 21 19 19 19 18 18 17 16 16 15 15 14 13 12 12 11 11 11 11 10 9 9 9 10 10 10 10 10 11 11 11 12 12 12 12 12 12 12 12 12
23 23 23 21 20 21 23 24 21 21 19 20 20 19 18 17 17 17 16 16 15 14 13 13 12 12 12 12 12 11 10 10 11 11 11 11 12 11 11 12 13 13 13 13 12 13 13 13 13
24 24 23 23 22 22 23 23 21 20 19 19 19 19 18 18 18 18 18 17 16 15 14 13 13 13 12 13 13 13 11 11 12 11 12 13 13 13 13 13 14 13 13 13 13 13 14 14 14
25 24 24 24 23 22 23 22 20 20 19 19 19 19 19 19 19 18 18 18 17 16 15 14 14 14 14 13 13 13 13 13 13 12 12 12 13 13 14 14 14 13 13 14 14 14 14 15 15
25 25 26 26 26 23 21 21 21 20 19 20 20 20 20 20 20 19 19 18 18 17 16 16 16 15 14 14 14 14 15 14 13 13 12 13 13 13 14 14 14 14 15 14 14 15 15 15 15
25 25 26 27 27 26 23 22 21 20 19 20 20 20 20 21 20 20 19 18 18 18 18 17 17 16 15 16 15 15 15 15 15 14 13 13 14 13 13 13 14 14 14 14 15 15 15 15 16
Wind_Direction
110 94 84 74 66 63 64 53 56 60 61 60 57 55 54 55 56 54 51 51 42 36 32 32 31 32 32 30 30 28 33 40 46 52 55 55 36 37 57 114 217 178 153 139 141 155 166 170 176
120 106 92 79 84 79 61 57 62 62 55 54 55 52 48 50 49 49 51 47 40 33 30 29 28 28 29 28 27 27 33 38 38 40 52 43 29 24 39 81 143 180 174 160 163 169 175 179 185
134 118 100 91 106 108 76 58 61 57 52 51 51 48 42 43 40 39 42 42 37 32 31 32 29 26 22 21 23 24 27 30 29 27 31 29 26 24 34 23 16 172 181 176 183 195 199 195 195
160 141 116 114 131 125 81 51 55 52 44 46 43 36 32 33 34 32 34 35 32 31 30 33 30 24 14 12 17 22 25 23 23 21 16 19 20 14 1 351 330 254 203 200 212 214 218 211 207
177 158 154 167 189 189 56 42 48 43 35 39 37 29 27 29 29 27 27 25 26 25 26 29 27 22 17 13 13 17 22 25 25 22 12 12 6 356 341 316 279 261 251 236 232 220 227 224 220
194 184 179 194 230 236 238 66 46 27 32 31 25 15 20 22 24 27 25 26 27 25 22 20 18 17 14 15 16 19 19 20 23 22 18 13 358 349 338 334 299 282 267 248 245 238 233 233 230
205 206 208 216 235 235 244 268 43 30 34 19 16 14 15 19 22 23 22 23 24 22 17 16 13 13 12 15 18 21 20 16 18 17 18 17 9 3 349 332 312 295 280 266 260 252 252 246 242
215 220 227 233 234 244 265 268 300 359 10 4 6 12 10 11 17 20 20 19 17 13 9 11 11 10 8 10 11 13 15 13 9 11 14 14 10 2 353 338 325 305 283 272 265 258 255 255 246
222 225 234 235 235 248 266 265 284 307 322 335 348 354 350 355 359 7 13 12 10 8 5 5 4 5 4 2 3 5 8 8 6 6 7 8 5 357 349 341 331 316 299 283 270 260 253 254 246
224 225 229 235 238 249 268 275 283 293 302 316 324 330 333 337 341 343 347 352 356 360 0 0 359 0 0 0 0 2 7 7 6 3 1 2 357 350 345 338 334 320 303 286 269 260 258 255 246
229 232 235 236 244 250 261 272 280 289 290 299 304 309 315 322 323 325 329 335 344 352 353 354 358 355 356 357 358 2 5 7 6 4 1 359 358 357 352 345 337 321 304 293 277 266 261 254 244
231 237 239 240 247 252 261 271 276 284 286 288 294 302 303 308 312 315 320 327 334 341 347 348 353 351 353 353 354 355 356 1 4 4 359 355 357 355 354 354 345 326 313 306 295 278 266 254 241
233 239 241 242 248 254 261 268 273 276 280 280 284 294 298 299 301 306 311 318 325 329 334 340 344 347 347 349 351 349 348 351 354 355 353 348 347 346 349 350 349 344 329 318 314 294 270 246 231
238 242 244 244 246 252 258 264 270 274 274 273 280 289 287 287 292 294 298 304 312 319 325 330 334 339 341 344 343 342 343 346 350 353 352 347 344 346 346 350 351 349 339 327 319 309 274 232 229
239 244 246 246 246 249 256 265 269 273 274 275 279 285 284 281 282 281 286 293 299 308 316 323 326 331 332 330 331 331 333 339 344 347 350 348 345 344 341 340 343 346 340 330 313 298 268 237 235
238 241 245 248 245 248 253 261 266 270 276 277 278 282 285 282 277 274 277 283 288 294 304 309 314 320 324 322 325 326 326 331 334 337 340 343 342 337 337 335 338 341 339 330 315 290 273 261 252
238 240 242 248 247 247 249 254 263 269 273 275 277 278 280 278 277 274 273 277 281 286 293 297 304 310 316 318 320 320 320 322 326 330 334 337 337 336 333 333 334 335 335 329 322 301 278 268 263
238 239 241 245 249 248 250 254 260 264 267 270 273 275 278 277 274 271 270 272 277 279 282 288 296 302 308 312 316 316 320 319 318 320 323 328 330 330 329 333 332 331 327 324 321 315 299 282 275
237 239 243 244 249 251 253 254 256 259 260 263 267 270 276 275 274 270 268 270 274 274 276 281 287 295 300 304 308 309 311 315 313 316 314 319 321 323 327 330 330 328 328 326 325 320 313 298 289
239 242 244 246 249 251 253 255 256 256 258 260 261 263 270 274 271 266 265 268 271 269 271 278 282 287 293 298 304 305 306 309 308 305 305 311 315 318 323 326 327 325 324 325 326 323 315 306 298
242 242 244 247 250 252 254 257 257 256 258 257 258 263 267 272 273 270 266 266 268 271 270 273 280 285 288 293 298 298 300 301 303 305 303 305 309 312 317 319 322 322 322 320 317 318 313 307 301
242 242 244 248 250 251 252 253 258 256 255 256 259 261 261 263 265 267 265 262 265 270 271 271 276 280 283 289 290 288 292 292 297 300 300 299 303 308 311 313 314 316 315 313 310 307 308 306 300
242 243 245 247 248 248 251 250 253 255 254 256 258 258 257 259 261 263 265 264 264 267 270 272 276 279 281 286 286 284 288 290 293 297 294 296 301 307 310 309 310 311 309 307 306 303 302 304 302
243 244 246 247 248 247 248 251 250 253 252 252 256 257 256 257 257 259 261 264 263 263 264 269 276 279 281 280 281 283 286 290 291 295 299 295 296 300 305 307 309 309 305 303 303 302 302 302 302
243 242 245 248 248 249 249 250 250 251 248 251 255 256 256 255 256 259 258 260 261 258 260 264 272 276 277 277 274 277 282 287 290 292 295 297 294 295 299 304 307 308 303 301 301 301 301 301 300
243 240 240 242 246 249 251 252 251 253 249 249 251 252 252 254 255 257 259 259 259 259 262 265 271 275 274 272 269 268 276 283 283 287 291 293 294 294 297 300 301 304 302 299 298 300 300 299 298
241 239 240 244 246 247 251 254 253 254 251 249 249 249 249 252 253 254 255 256 259 262 264 266 269 272 274 272 270 269 272 277 283 283 291 290 289 291 296 298 300 302 300 296 296 297 298 298 298
240 241 240 241 245 249 253 255 254 254 252 246 246 248 251 252 252 254 255 257 258 259 260 262 266 271 273 273 271 268 271 277 279 286 294 293 291 291 294 295 296 298 296 293 293 292 293 296 296
242 241 241 242 244 247 253 256 254 254 251 248 246 247 250 252 252 254 255 258 256 255 259 262 265 268 270 271 274 276 277 276 279 284 290 293 296 299 296 294 296 299 297 292 291 291 291 293 294
244 243 244 244 245 247 249 254 255 255 252 250 249 248 249 252 253 253 254 255 253 255 259 261 264 266 268 270 271 274 277 276 277 280 286 293 298 301 299 298 300 302 301 296 291 291 293 294 294
Height
5910 5910 5911 5911 5913 5914 5913 5911 5910 5909 5908 5907 5905 5904 5904 5903 5903 5904 5900 5898 5897 5895 5894 5893 5891 5890 5889 5887 5886 5885 5882 5881 5880 5880 5880 5879 5879 5878 5878 5878 5877 5877 5877 5876 5876 5876 5877 5877 5878
5910 5910 5912 5913 5914 5915 5913 5911 5910 5909 5908 5907 5906 5905 5904 5903 5902 5901 5899 5898 5897 5896 5894 5893 5892 5890 5889 5888 5886 5885 5884 5882 5881 5880 5879 5879 5878 5878 5877 5877 5877 5877 5876 5876 5876 5876 5877 5877 5878
5910 5911 5913 5913 5914 5914 5913 5911 5910 5909 5908 5907 5906 5905 5905 5903 5902 5901 5900 5899 5897 5896 5895 5893 5892 5891 5889 5888 5887 5885 5884 5883 5881 5880 5879 5879 5878 5877 5877 5877 5876 5876 5876 5876 5876 5876 5877 5877 5878
5910 5912 5913 5914 5914 5913 5912 5911 5910 5910 5909 5908 5907 5906 5905 5904 5903 5901 5900 5899 5898 5896 5895 5894 5892 5891 5890 5888 5887 5885 5884 5883 5882 5880 5879 5879 5878 5877 5877 5876 5876 5876 5876 5876 5876 5876 5876 5876 5877
5910 5912 5914 5914 5913 5912 5912 5911 5910 5910 5909 5908 5907 5907 5905 5904 5903 5902 5900 5899 5898 5897 5896 5894 5893 5892 5890 5889 5887 5885 5884 5883 5882 5881 5879 5878 5878 5877 5876 5876 5876 5876 5875 5875 5875 5875 5876 5875 5876
5911 5912 5914 5914 5913 5912 5911 5911 5910 5910 5909 5908 5908 5907 5906 5905 5903 5902 5901 5899 5898 5897 5896 5894 5893 5892 5890 5889 5887 5886 5884 5883 5882 5881 5879 5878 5877 5877 5876 5876 5875 5875 5875 5874 5874 5874 5874 5874 5875
5911 5912 5913 5913 5912 5912 5911 5911 5910 5910 5909 5908 5908 5907 5906 5905 5903 5902 5901 5899 5898 5897 5896 5894 5893 5892 5890 5889 5888 5886 5885 5883 5882 5881 5879 5878 5877 5876 5876 5875 5875 5874 5874 5873 5873 5873 5873 5873 5873
5909 5911 5912 5912 5912 5912 5911 5910 5910 5910 5909 5908 5908 5907 5906 5905 5903 5902 5901 5900 5898 5897 5896 5895 5893 5892 5890 5889 5888 5886 5885 5883 5882 5881 5879 5878 5877 5876 5875 5875 5874 5873 5873 5872 5872 5872 5872 5872 5872
5908 5911 5911 5911 5911 5911 5910 5910 5910 5909 5909 5908 5907 5907 5906 5905 5903 5902 5901 5900 5899 5898 5896 5895 5893 5892 5890 5889 5888 5886 5885 5883 5882 5881 5879 5878 5877 5876 5875 5874 5873 5872 5872 5871 5871 5870 5870 5870 5870
5907 5909 5909 5909 5909 5910 5909 5909 5909 5909 5908 5908 5907 5906 5905 5904 5903 5902 5901 5900 5899 5898 5896 5895 5893 5892 5891 5889 5887 5886 5885 5883 5882 5880 5879 5878 5877 5875 5874 5873 5872 5871 5870 5870 5869 5868 5868 5868 5868
5905 5906 5906 5907 5907 5908 5908 5908 5908 5908 5908 5907 5906 5905 5904 5903 5902 5901 5901 5900 5898 5897 5896 5895 5893 5892 5890 5889 5887 5886 5884 5883 5881 5880 5879 5877 5876 5875 5874 5872 5871 5870 5869 5868 5867 5866 5866 5866 5866
5903 5903 5904 5905 5905 5906 5907 5907 5907 5907 5907 5906 5905 5904 5903 5902 5901 5901 5900 5899 5897 5896 5895 5894 5893 5892 5890 5889 5887 5886 5884 5883 5881 5880 5878 5877 5876 5874 5873 5872 5870 5869 5868 5866 5865 5864 5862 5863 5864
5900 5901 5902 5903 5903 5904 5905 5905 5905 5905 5905 5904 5903 5903 5902 5901 5900 5900 5899 5898 5897 5896 5895 5893 5892 5891 5890 5888 5887 5885 5884 5882 5881 5879 5878 5876 5875 5874 5872 5871 5870 5868 5867 5865 5863 5861 5860 5860 5862
5898 5898 5899 5900 5901 5902 5903 5903 5904 5903 5903 5902 5902 5901 5900 5900 5899 5898 5897 5896 5896 5895 5894 5892 5891 5890 5889 5888 5886 5885 5883 5882 5880 5879 5877 5876 5874 5873 5872 5870 5869 5867 5866 5864 5862 5861 5859 5860 5861
5895 5896 5897 5898 5899 5899 5901 5901 5901 5901 5900 5900 5900 5899 5898 5898 5897 5896 5895 5895 5894 5893 5892 5891 5890 5889 5888 5887 5886 5884 5882 5881 5880 5878 5877 5875 5874 5872 5871 5870 5868 5867 5865 5864 5862 5860 5860 5860 5861
5892 5894 5895 5896 5896 5897 5900 5900 5899 5898 5898 5898 5897 5896 5896 5895 5895 5894 5893 5893 5892 5892 5891 5890 5889 5888 5887 5886 5884 5883 5882 5880 5879 5877 5876 5874 5873 5872 5871 5869 5868 5866 5864 5863 5861 5861 5860 5860 5860
5889 5891 5892 5893 5893 5894 5896 5897 5896 5895 5895 5895 5894 5894 5893 5893 5892 5891 5891 5890 5890 5890 5889 5888 5888 5887 5886 5884 5883 5882 5881 5879 5878 5876 5875 5874 5872 5871 5870 5869 5867 5865 5864 5862 5861 5860 5859 5859 5859
5887 5888 5889 5890 5890 5891 5892 5893 5893 5892 5892 5892 5891 5891 5890 5890 5889 5889 5888 5888 5888 5887 5887 5886 5886 5885 5884 5883 5882 5881 5880 5878 5877 5875 5874 5873 5872 5870 5869 5868 5866 5865 5863 5862 5860 5859 5858 5858 5857
5882 5884 5885 5886 5886 5888 5888 5889 5889 5889 5889 5889 5888 5888 5887 5887 5886 5886 5886 5886 5885 5885 5885 5884 5884 5883 5882 5881 5880 5879 5878 5877 5875 5874 5873 5872 5871 5870 5868 5867 5866 5864 5862 5861 5859 5858 5857 5857 5856
5877 5879 5881 5881 5882 5884 5884 5885 5885 5885 5885 5885 5885 5885 5885 5884 5884 5883 5883 5883 5883 5883 5882 5882 5882 5881 5880 5879 5878 5877 5876 5875 5874 5873 5872 5871 5870 5868 5867 5866 5865 5863 5861 5860 5859 5857 5856 5855 5855
5872 5874 5876 5877 5878 5879 5880 5882 5882 5881 5882 5882 5882 5882 5882 5881 5881 5880 5880 5880 5880 5880 5880 5880 5880 5879 5878 5877 5876 5876 5875 5874 5872 5871 5871 5870 5868 5867 5866 5865 5863 5862 5860 5858 5857 5856 5855 5854 5853
5867 5869 5871 5872 5873 5875 5876 5878 5878 5878 5878 5878 5879 5879 5879 5878 5878 5878 5877 5877 5877 5877 5877 5877 5877 5877 5876 5875 5875 5874 5873 5872 5871 5870 5869 5868 5867 5866 5864 5863 5862 5860 5858 5857 5856 5854 5853 5852 5851
5862 5863 5865 5867 5869 5870 5871 5873 5875 5874 5874 5875 5875 5875 5875 5876 5875 5875 5875 5875 5875 5875 5875 5875 5875 5874 5874 5873 5873 5872 5871 5870 5869 5868 5867 5866 5865 5864 5863 5861 5859 5858 5856 5855 5854 5852 5851 5850 5849
5856 5858 5860 5861 5863 5865 5866 5868 5870 5869 5870 5871 5871 5871 5872 5872 5872 5872 5872 5872 5872 5872 5872 5872 5872 5872 5871 5871 5871 5870 5869 5868 5867 5866 5865 5864 5863 5862 5861 5859 5857 5855 5854 5852 5851 5850 5849 5848 5847
5851 5854 5856 5857 5858 5860 5861 5862 5864 5864 5865 5866 5867 5867 5867 5868 5869 5868 5868 5869 5869 5869 5869 5869 5870 5869 5869 5868 5868 5867 5867 5866 5865 5864 5863 5862 5861 5860 5858 5856 5855 5853 5851 5850 5848 5847 5846 5845 5844
5845 5848 5852 5854 5856 5857 5856 5856 5860 5859 5860 5861 5862 5862 5863 5864 5864 5865 5865 5865 5866 5866 5866 5866 5867 5866 5866 5866 5865 5865 5864 5863 5863 5862 5861 5860 5858 5857 5855 5854 5852 5850 5848 5847 5846 5845 5843 5842 5841
5839 5842 5845 5848 5849 5850 5851 5852 5854 5854 5855 5856 5857 5858 5858 5859 5860 5861 5861 5861 5862 5862 5863 5863 5863 5863 5863 5863 5862 5862 5861 5860 5859 5859 5858 5856 5855 5854 5852 5851 5849 5847 5845 5844 5843 5842 5840 5839 5838
5834 5836 5839 5840 5842 5844 5846 5847 5849 5849 5850 5851 5852 5853 5854 5854 5855 5856 5857 5857 5858 5858 5859 5859 5860 5860 5860 5859 5858 5858 5858 5857 5857 5856 5855 5853 5852 5850 5849 5847 5845 5843 5842 5840 5839 5838 5837 5835 5834
5828 5830 5832 5834 5837 5839 5841 5845 5843 5843 5845 5846 5847 5848 5848 5850 5851 5852 5852 5853 5853 5854 5855 5855 5856 5856 5856 5856 5855 5855 5854 5854 5853 5852 5852 5850 5848 5846 5844 5843 5841 5840 5838 5836 5835 5834 5833 5831 5830
5821 5823 5825 5828 5829 5832 5835 5840 5837 5838 5839 5840 5841 5842 5843 5844 5846 5847 5848 5848 5849 5850 5851 5851 5852 5852 5852 5852 5851 5851 5850 5850 5849 5849 5848 5847 5845 5843 5841 5839 5838 5836 5834 5832 5830 5829 5828 5827 5826